SCP
0 0 0 0 0 0 0 0 0 0 0 0 0 0 0 0 0 0 0 0 0 0 0 0 0 0 0 0 0 0 0 0 0 0 0 0 0 0 0 0 0 0 0 0 0
0 0 0 0 0 0 0 0 0 0 0 0 0 0 0 0 0 0 0 0 0 0 0 0 0 0 0 0 0 0 0 0 0 0 0 0 0 0 0 0 0 0 0 0 0
0 0 0 0 0 0 0 0 0 0 0 0 0 0 0 0 0 0 0 0 -0 0 0 0 0 0 0 0 0 0 0 0 0 0 0 0 0 0 0 0 0 0 0 0 0
0 0 0 0 0 0 0 0 0 0 0 0 0 0 0 0 0 0 0 0 0 0 0 0 0 0 0 0 0 0 0 0 0 0 0 0 0 0 0 0 0 0 0 0 0
0 0 0 0 0 0 0 0 0 0 0 0 0 0 0 0 0 0 0 0 0 0 0 0 0 0 0 0 0 0 0 0 0 0 0 0 0 0 0 0 0 0 0 0 0
0 0 0 0 0 0 0 0 0 0 0 0 0 0 0 0 0 0 0 0 0 0 0 0 0 0 0 0 0 0 0 0 0 0 0 0 0 0 0 0 0 0 0 0 0
0 0 0 0 0 0 0 0 0 0 0 0 0 0 0 0 0 0 0 0 0 0 0 0 0 0 0 0 0 0 0 0 0 0 0 0 0 0 0 0 0 0 0 0 0
0 0 0 0 0 0 0 0 0 0 0 0 0 0 0 0 0 0 0 0 0 0 0 0 0 0 0 0 0 0 0 0 0 0 0 0 0 0 0 0 0 0 0 0 0
0 0 0 0 0 0 0 0 0 0 0 0 0 0 0 0 0 0 0 0 0 0 0 0 0 0 0 0 0 0 0 0 0 0 0 0 0 0 0 0 0 0 0 0 0
0 0 0 0 0 0 0 0 0 0 0 0 0 0 0 0 0 0 0 0 0 0 0 0 0 0 0 0 0 0 0 0 0 0 0 0 0 0 0 0 0 0 0 0 0
0 0 0 0 0 0 0 0 0 0 0 0 0 0 0 0 0 0 0 0 0 0 0 0 0 0 0 0 0 0 0 0 0 0 0 0 0 0 0 0 0 0 0 0 0
0 0 0 0 0 0 0 0 0 0 0 0 0 0 0 0 0 0 0 0 0 0 0 0 0 0 0 0 0 0 0 0 0 0 0 0 0 0 0 0 0 0 0 0 0
0 0 0 0 0 0 0 0 0 0 0 0 0 0 0 0 0 0 0 0 0 0 0 0 0 0 0 0 0 0 0 0 0 0 0 0 0 0 0 0 0 0 0 0 0
0 0 0 0 0 0 0 0 0 0 0 0 0 0 0 0 0 0 0 0 0 0 0 0 0 0 0 0 0 0 0 0 0 0 0 0 0 0 0 0 0 0 0 0 0
0 0 0 0 0 0 0 0 0 0 0 0 0 0 0 0 0 0 0 0 0 0 0 0 0 0 0 0 0 0 0 0 0 0 0 0 0 0 0 0 0 0 0 0 0
0 0 0 0 0 0 0 0 0 0 0 0 0 0 0 0 0 0 0 0 0 0 0 0 0 0 0 0 0 0 0 0 0 0 0 0 0 0 0 0 0 0 0 0 0
0 0 0 0 0 0 0 0 0 0 0 0 0 0 0 0 0 0 0 0 0 0 0 0 0 0 0 0 0 0 0 0 0 0 0 0 0 0 0 0 0 0 0 0 0
0 0 0 0 0 0 0 0 0 0 0 0 0 0 0 0 0 0 0 0 0 0 0 0 0 0 0 0 0 0 0 0 0 0 0 0 0 0 0 0 0 0 0 0 0
0 0 0 0 0 0 0 0 0 0 0 0 0 0 0 0 0 0 0 0 0 0 0 0 0 0 0 0 0 0 0 0 0 0 0 0 0 0 0 0 0 0 0 0 0
0 0 0 0 0 0 0 0 0 0 0 0 0 0 0 0 0 0 0 0 0 0 0 0 0 0 0 0 0 0 0 0 0 0 0 0 0 0 0 0 0 0 0 0 0
0 0 0 0 0 0 0 0 0 0 0 0 0 0 0 0 0 0 0 0 0 0 0 0 0 0 0 0 0 0 0 0 0 0 0 0 0 0 0 0 0 0 0 0 0
0 0 0 0 0 0 0 0 0 0 0 0 0 0 0 0 0 0 0 0 0 0 0 0 0 0 0 0 0 0 0 0 0 0 0 0 0 0 0 0 0 0 0 0 0
0 0 0 0 0 0 0 0 0 0 0 0 0 0 0 0 0 0 0 0 0 0 0 0 0 0 0 0 0 0 0 0 0 0 0 0 0 0 0 0 0 0 0 0 0
0 0 0 0 0 0 0 0 0 0 0 0 0 0 0 0 0 0 0 0 0 0 0 0 0 0 0 0 0 0 0 0 0 0 0 0 0 0 0 0 0 0 0 0 0
0 0 0 0 0 0 0 0 0 0 0 0 0 0 0 0 0 0 0 0 0 0 0 0 0 0 0 0 0 0 0 0 0 0 0 0 0 0 0 0 0 0 0 0 0
0 0 0 0 0 0 0 0 0 0 0 0 0 0 0 0 0 0 0 0 0 0 0 0 0 0 0 0 0 0 0 0 0 0 0 0 0 0 0 0 0 0 0 0 0
0 0 0 0 0 0 0 0 0 0 0 0 0 0 0 0 0 0 0 0 0 0 0 0 0 0 0 0 0 0 0 0 0 0 0 0 0 0 0 0 0 0 0 0 0
Wind_Speed_500mb
9 8 7 7 6 6 7 8 10 11 13 15 16 18 19 21 24 28 31 14 13 14 12 7 7 5 2 3 2 2 8 3 7 3 11 17 12 7 13 17 9 11 19 28 29
13 12 11 10 10 11 11 12 13 14 15 16 18 20 21 24 27 27 7 6 5 5 6 9 9 5 3 2 5 7 7 14 10 7 7 10 5 21 10 27 27 36 30 15 26
17 16 15 14 14 15 15 16 16 17 19 19 20 20 22 23 24 0 3 6 7 11 15 18 8 5 3 7 11 10 10 9 10 11 7 10 15 7 8 14 35 39 35 39 35
21 21 20 19 19 19 19 19 20 20 20 19 20 20 19 18 7 6 3 2 4 10 13 12 11 8 6 7 10 3 19 24 16 19 14 7 17 15 17 46 47 46 43 33 38
26 25 25 25 24 24 24 23 22 21 20 19 18 19 18 13 18 21 21 19 16 17 20 14 15 12 7 7 4 10 10 16 18 30 32 29 25 20 44 38 23 19 18 17 25
31 30 29 28 27 26 24 23 21 21 21 20 20 19 18 15 20 17 18 17 17 17 22 20 9 9 7 8 7 4 9 22 28 50 42 17 10 4 22 19 22 14 23 29 26
31 30 30 28 27 26 25 24 24 23 22 21 21 19 24 32 25 20 19 17 17 20 21 20 24 14 3 4 7 7 10 15 31 17 9 5 1 14 19 24 26 27 24 14 13
31 31 31 30 29 28 27 26 25 23 22 21 21 20 18 23 22 21 21 22 19 20 20 19 16 15 9 3 9 6 4 6 9 5 1 8 14 13 21 28 41 31 15 17 18
30 30 30 29 28 27 25 26 24 23 24 24 22 18 14 17 16 18 18 15 15 17 17 14 13 9 4 9 8 6 7 9 15 5 5 6 11 25 42 39 41 18 26 29 28
30 28 28 28 26 25 23 23 22 24 26 25 25 10 26 13 12 12 12 14 9 13 11 10 8 5 5 7 10 12 9 9 9 7 1 8 18 19 52 36 18 33 35 34 37
32 30 28 26 24 24 19 17 14 9 24 21 12 11 5 15 13 12 15 18 14 10 9 9 7 14 23 22 6 5 7 10 12 14 2 14 10 22 38 30 21 41 47 46 50
34 35 31 27 25 24 20 11 14 8 17 33 45 46 38 23 13 20 21 17 14 12 10 4 13 27 4 8 11 13 14 14 10 13 5 9 22 14 29 19 40 49 48 49 50
43 39 36 32 29 29 24 21 16 11 9 18 35 26 31 35 21 23 30 17 12 11 14 16 11 11 14 11 12 8 10 9 13 7 8 3 15 7 12 40 48 47 46 46 50
53 47 41 34 33 31 28 23 19 5 4 10 11 10 18 18 9 20 33 15 8 18 11 12 16 14 11 11 11 7 14 13 9 5 6 6 7 4 5 16 26 33 44 46 49
57 61 51 45 23 28 21 28 21 8 8 2 8 12 17 13 19 9 24 14 10 10 12 11 3 6 9 14 12 13 6 7 4 5 4 6 6 8 12 7 10 18 38 42 43
59 59 49 49 49 31 27 33 26 6 18 9 10 11 9 8 7 12 7 8 6 4 2 11 4 5 11 4 8 9 6 10 10 5 1 11 12 7 10 16 13 23 33 39 40
51 59 64 62 62 53 43 37 7 12 4 10 10 11 7 10 7 9 10 8 11 9 6 3 7 5 6 7 4 6 9 2 6 4 10 8 5 7 9 21 29 30 37 36 33
59 59 63 63 61 53 56 7 15 11 11 5 8 11 11 11 7 10 9 7 10 5 6 9 6 15 9 12 13 12 14 10 13 7 8 9 10 4 11 36 49 45 38 31 26
41 55 65 70 69 61 53 17 12 11 12 17 7 10 7 8 9 10 14 13 18 22 17 13 10 3 5 4 10 10 9 2 11 5 6 8 3 5 13 16 26 35 32 26 18
50 37 32 46 45 75 16 14 9 8 10 8 16 10 13 14 12 13 14 10 10 19 9 10 3 2 4 4 4 6 7 6 5 4 7 8 10 8 18 21 15 22 31 26 20
50 26 36 41 54 34 13 12 11 14 10 11 20 20 16 12 20 13 10 4 7 8 15 9 6 6 4 8 13 2 1 6 5 7 8 3 10 2 29 27 27 33 36 31 23
25 5 23 50 25 7 9 12 12 12 21 9 4 18 19 17 15 16 18 4 7 13 15 7 9 8 12 5 7 1 9 10 8 10 6 4 18 5 24 32 39 34 27 28 22
16 3 11 32 7 11 3 4 12 9 8 15 13 5 5 11 10 9 6 3 8 8 17 14 2 3 12 6 2 6 5 7 9 6 10 9 12 7 20 21 19 19 25 24 18
16 4 11 18 12 3 11 10 9 22 11 9 8 11 7 8 9 5 7 3 9 2 4 11 8 14 20 10 9 8 10 8 10 7 6 12 9 12 17 15 21 16 25 28 22
11 8 11 7 14 14 3 7 17 13 13 28 7 17 12 12 11 13 7 3 5 3 4 6 10 7 6 4 5 8 16 16 12 11 14 17 19 25 7 10 23 30 33 27 14
17 7 8 5 9 13 20 16 28 9 16 9 16 18 16 23 15 14 14 9 10 3 3 7 4 6 5 9 4 12 15 21 23 23 19 25 38 18 3 15 34 35 26 13 8
36 18 11 7 7 13 23 29 22 11 8 4 24 11 12 15 18 19 18 14 16 14 9 7 10 6 9 8 9 17 15 36 15 13 17 23 23 9 10 23 39 30 18 12 13
Wind_Direction_500mb
252 255 258 265 265 272 281 291 299 306 311 313 316 316 318 317 315 312 312 290 272 263 271 218 189 210 228 146 131 144 61 255 249 21 289 337 3 354 319 286 279 264 276 297 300
260 260 264 269 278 282 285 290 296 301 303 307 310 314 315 317 316 312 308 296 251 214 180 162 150 139 128 174 180 121 126 223 213 182 254 291 299 311 316 296 294 296 301 285 322
258 261 264 267 272 278 285 289 293 297 300 303 305 309 313 318 324 164 101 84 116 146 153 159 169 180 213 207 196 177 198 220 251 258 265 280 285 257 295 298 295 301 309 303 306
257 262 265 268 270 273 276 280 285 289 294 298 302 306 308 311 295 188 194 248 250 213 197 196 207 187 199 217 214 189 248 247 274 290 305 270 297 301 266 281 308 305 304 304 308
260 261 263 266 268 271 275 279 283 287 292 297 300 300 298 277 256 261 266 264 260 231 217 216 210 193 194 220 279 212 256 256 264 282 282 277 259 267 281 297 309 326 325 343 344
262 263 264 265 267 268 270 274 278 283 289 292 293 291 278 253 264 256 264 263 255 233 224 223 216 188 258 236 194 235 283 284 289 283 280 258 270 158 274 313 311 347 354 344 341
258 260 262 263 265 266 267 272 275 278 283 286 285 283 268 263 265 256 256 260 255 240 224 219 221 232 198 288 313 295 322 316 273 279 229 198 300 226 286 290 291 311 2 357 43
256 257 259 262 264 266 269 272 274 279 280 279 280 278 259 260 249 250 259 257 243 233 230 222 219 242 237 289 345 326 40 326 295 168 129 136 264 266 307 292 287 326 75 95 89
256 257 258 259 262 265 267 271 276 276 274 272 271 254 256 246 243 246 239 231 224 220 222 225 214 214 148 92 359 347 240 216 309 317 133 140 249 273 298 287 296 54 114 110 97
259 257 254 256 257 261 266 273 277 273 265 264 244 256 234 222 214 226 216 188 183 174 159 169 159 99 59 105 219 222 220 236 236 271 41 253 246 277 280 297 285 128 116 102 88
257 254 251 250 250 254 257 276 270 253 229 218 223 207 205 208 209 194 186 175 164 174 165 184 119 203 211 202 169 168 210 229 253 261 280 266 279 261 293 296 124 121 115 101 88
256 260 252 247 243 244 245 234 229 248 291 250 249 250 251 240 218 200 192 179 179 200 141 82 222 230 196 161 213 242 251 255 283 257 226 294 295 31 27 22 112 114 110 105 99
254 252 253 248 245 238 234 231 243 234 256 264 242 239 237 229 230 213 197 194 183 189 193 190 214 195 180 221 207 213 207 219 233 302 292 326 295 108 51 72 80 91 104 101 95
245 245 241 238 246 238 227 221 208 194 288 249 213 209 174 164 205 187 188 188 201 201 208 235 251 204 200 211 171 256 233 213 236 115 232 79 277 43 93 72 68 93 105 103 97
242 242 231 224 225 207 219 188 184 120 265 143 161 160 160 177 135 178 182 187 188 182 129 240 233 181 186 219 156 223 173 173 161 140 54 318 115 260 131 107 117 106 110 106 98
239 233 224 218 219 213 191 187 148 133 235 195 146 166 134 166 154 128 154 162 159 171 176 236 263 220 209 131 170 152 102 51 39 92 246 211 161 247 193 180 151 135 121 111 103
242 233 226 219 218 209 200 176 160 209 111 192 185 163 167 161 170 163 162 175 162 125 196 265 228 261 173 122 36 112 86 333 345 341 227 169 132 256 337 141 146 139 130 117 104
234 235 219 223 224 219 205 176 213 181 191 133 121 129 168 158 198 188 131 206 236 161 145 169 270 177 195 198 181 188 169 164 205 210 245 274 241 301 48 105 131 138 134 128 113
219 218 221 221 225 210 172 210 217 184 165 151 74 136 183 213 166 157 203 207 200 180 175 181 260 121 171 171 152 189 185 198 106 44 67 224 40 114 108 102 129 141 146 140 127
199 199 205 199 199 174 187 209 216 220 127 155 173 165 176 193 158 183 200 216 212 189 204 189 210 47 183 127 63 168 161 69 8 167 260 277 268 200 177 172 172 168 169 164 170
192 173 197 195 192 188 197 216 202 222 207 171 197 188 216 188 194 189 219 290 164 149 138 130 134 247 142 205 189 128 168 84 133 152 185 243 254 242 177 175 178 188 191 188 194
163 148 170 182 192 218 171 179 186 166 183 241 265 195 194 184 197 203 213 226 11 161 154 183 145 182 201 341 318 345 202 166 155 225 227 174 261 96 157 168 176 192 203 207 209
129 111 206 191 209 196 166 183 194 155 176 177 206 248 124 168 201 213 203 71 341 185 161 179 164 64 350 345 48 186 170 127 104 81 203 183 258 98 118 144 192 202 202 191 184
129 163 236 250 267 239 165 191 209 195 189 194 170 134 153 170 209 215 182 310 314 152 119 131 148 179 224 189 134 158 171 166 132 137 184 222 273 176 171 180 200 196 182 172 177
163 212 190 189 239 229 279 172 194 182 215 186 185 207 170 195 203 200 160 167 359 15 52 132 188 142 285 138 138 184 172 187 182 180 192 248 222 256 211 230 209 174 163 169 174
168 201 198 194 184 216 234 218 234 207 170 210 221 190 189 211 182 192 143 184 192 83 102 357 170 101 315 291 233 268 193 191 218 234 243 252 267 270 99 159 151 163 167 179 223
199 201 169 219 170 178 225 235 221 164 237 233 204 147 200 207 139 113 116 124 148 146 161 128 129 86 262 1 29 303 207 203 201 198 219 226 243 169 164 158 164 165 181 209 247
Wind_Speed_850mb
9 8 7 7 6 6 7 8 10 11 13 15 16 18 19 21 24 28 31 14 13 14 12 7 7 5 2 3 2 2 8 3 7 3 11 17 12 7 13 17 9 11 19 28 29
13 12 11 10 10 11 11 12 13 14 15 16 18 20 21 24 27 27 7 6 5 5 6 9 9 5 3 2 5 7 7 14 10 7 7 10 5 21 10 27 27 36 30 15 26
17 16 15 14 14 15 15 16 16 17 19 19 20 20 22 23 24 0 3 6 7 11 15 18 8 5 3 7 11 10 10 9 10 11 7 10 15 7 8 14 35 39 35 39 35
21 21 20 19 19 19 19 19 20 20 20 19 20 20 19 18 7 6 3 2 4 10 13 12 11 8 6 7 10 3 19 24 16 19 14 7 17 15 17 46 47 46 43 33 38
26 25 25 25 24 24 24 23 22 21 20 19 18 19 18 13 18 21 21 19 16 17 20 14 15 12 7 7 4 10 10 16 18 30 32 29 25 20 44 38 23 19 18 17 25
31 30 29 28 27 26 24 23 21 21 21 20 20 19 18 15 20 17 18 17 17 17 22 20 9 9 7 8 7 4 9 22 28 50 42 17 10 4 22 19 22 14 23 29 26
31 30 30 28 27 26 25 24 24 23 22 21 21 19 24 32 25 20 19 17 17 20 21 20 24 14 3 4 7 7 10 15 31 17 9 5 1 14 19 24 26 27 24 14 13
31 31 31 30 29 28 27 26 25 23 22 21 21 20 18 23 22 21 21 22 19 20 20 19 16 15 9 3 9 6 4 6 9 5 1 8 14 13 21 28 41 31 15 17 18
30 30 30 29 28 27 25 26 24 23 24 24 22 18 14 17 16 18 18 15 15 17 17 14 13 9 4 9 8 6 7 9 15 5 5 6 11 25 42 39 41 18 26 29 28
30 28 28 28 26 25 23 23 22 24 26 25 25 10 26 13 12 12 12 14 9 13 11 10 8 5 5 7 10 12 9 9 9 7 1 8 18 19 52 36 18 33 35 34 37
32 30 28 26 24 24 19 17 14 9 24 21 12 11 5 15 13 12 15 18 14 10 9 9 7 14 23 22 6 5 7 10 12 14 2 14 10 22 38 30 21 41 47 46 50
34 35 31 27 25 24 20 11 14 8 17 33 45 46 38 23 13 20 21 17 14 12 10 4 13 27 4 8 11 13 14 14 10 13 5 9 22 14 29 19 40 49 48 49 50
43 39 36 32 29 29 24 21 16 11 9 18 35 26 31 35 21 23 30 17 12 11 14 16 11 11 14 11 12 8 10 9 13 7 8 3 15 7 12 40 48 47 46 46 50
53 47 41 34 33 31 28 23 19 5 4 10 11 10 18 18 9 20 33 15 8 18 11 12 16 14 11 11 11 7 14 13 9 5 6 6 7 4 5 16 26 33 44 46 49
57 61 51 45 23 28 21 28 21 8 8 2 8 12 17 13 19 9 24 14 10 10 12 11 3 6 9 14 12 13 6 7 4 5 4 6 6 8 12 7 10 18 38 42 43
59 59 49 49 49 31 27 33 26 6 18 9 10 11 9 8 7 12 7 8 6 4 2 11 4 5 11 4 8 9 6 10 10 5 1 11 12 7 10 16 13 23 33 39 40
51 59 64 62 62 53 43 37 7 12 4 10 10 11 7 10 7 9 10 8 11 9 6 3 7 5 6 7 4 6 9 2 6 4 10 8 5 7 9 21 29 30 37 36 33
59 59 63 63 61 53 56 7 15 11 11 5 8 11 11 11 7 10 9 7 10 5 6 9 6 15 9 12 13 12 14 10 13 7 8 9 10 4 11 36 49 45 38 31 26
41 55 65 70 69 61 53 17 12 11 12 17 7 10 7 8 9 10 14 13 18 22 17 13 10 3 5 4 10 10 9 2 11 5 6 8 3 5 13 16 26 35 32 26 18
50 37 32 46 45 75 16 14 9 8 10 8 16 10 13 14 12 13 14 10 10 19 9 10 3 2 4 4 4 6 7 6 5 4 7 8 10 8 18 21 15 22 31 26 20
50 26 36 41 54 34 13 12 11 14 10 11 20 20 16 12 20 13 10 4 7 8 15 9 6 6 4 8 13 2 1 6 5 7 8 3 10 2 29 27 27 33 36 31 23
25 5 23 50 25 7 9 12 12 12 21 9 4 18 19 17 15 16 18 4 7 13 15 7 9 8 12 5 7 1 9 10 8 10 6 4 18 5 24 32 39 34 27 28 22
16 3 11 32 7 11 3 4 12 9 8 15 13 5 5 11 10 9 6 3 8 8 17 14 2 3 12 6 2 6 5 7 9 6 10 9 12 7 20 21 19 19 25 24 18
16 4 11 18 12 3 11 10 9 22 11 9 8 11 7 8 9 5 7 3 9 2 4 11 8 14 20 10 9 8 10 8 10 7 6 12 9 12 17 15 21 16 25 28 22
11 8 11 7 14 14 3 7 17 13 13 28 7 17 12 12 11 13 7 3 5 3 4 6 10 7 6 4 5 8 16 16 12 11 14 17 19 25 7 10 23 30 33 27 14
17 7 8 5 9 13 20 16 28 9 16 9 16 18 16 23 15 14 14 9 10 3 3 7 4 6 5 9 4 12 15 21 23 23 19 25 38 18 3 15 34 35 26 13 8
36 18 11 7 7 13 23 29 22 11 8 4 24 11 12 15 18 19 18 14 16 14 9 7 10 6 9 8 9 17 15 36 15 13 17 23 23 9 10 23 39 30 18 12 13
Wind_Direction_850mb
252 255 258 265 265 272 281 291 299 306 311 313 316 316 318 317 315 312 312 290 272 263 271 218 189 210 228 146 131 144 61 255 249 21 289 337 3 354 319 286 279 264 276 297 300
260 260 264 269 278 282 285 290 296 301 303 307 310 314 315 317 316 312 308 296 251 214 180 162 150 139 128 174 180 121 126 223 213 182 254 291 299 311 316 296 294 296 301 285 322
258 261 264 267 272 278 285 289 293 297 300 303 305 309 313 318 324 164 101 84 116 146 153 159 169 180 213 207 196 177 198 220 251 258 265 280 285 257 295 298 295 301 309 303 306
257 262 265 268 270 273 276 280 285 289 294 298 302 306 308 311 295 188 194 248 250 213 197 196 207 187 199 217 214 189 248 247 274 290 305 270 297 301 266 281 308 305 304 304 308
260 261 263 266 268 271 275 279 283 287 292 297 300 300 298 277 256 261 266 264 260 231 217 216 210 193 194 220 279 212 256 256 264 282 282 277 259 267 281 297 309 326 325 343 344
262 263 264 265 267 268 270 274 278 283 289 292 293 291 278 253 264 256 264 263 255 233 224 223 216 188 258 236 194 235 283 284 289 283 280 258 270 158 274 313 311 347 354 344 341
258 260 262 263 265 266 267 272 275 278 283 286 285 283 268 263 265 256 256 260 255 240 224 219 221 232 198 288 313 295 322 316 273 279 229 198 300 226 286 290 291 311 2 357 43
256 257 259 262 264 266 269 272 274 279 280 279 280 278 259 260 249 250 259 257 243 233 230 222 219 242 237 289 345 326 40 326 295 168 129 136 264 266 307 292 287 326 75 95 89
256 257 258 259 262 265 267 271 276 276 274 272 271 254 256 246 243 246 239 231 224 220 222 225 214 214 148 92 359 347 240 216 309 317 133 140 249 273 298 287 296 54 114 110 97
259 257 254 256 257 261 266 273 277 273 265 264 244 256 234 222 214 226 216 188 183 174 159 169 159 99 59 105 219 222 220 236 236 271 41 253 246 277 280 297 285 128 116 102 88
257 254 251 250 250 254 257 276 270 253 229 218 223 207 205 208 209 194 186 175 164 174 165 184 119 203 211 202 169 168 210 229 253 261 280 266 279 261 293 296 124 121 115 101 88
256 260 252 247 243 244 245 234 229 248 291 250 249 250 251 240 218 200 192 179 179 200 141 82 222 230 196 161 213 242 251 255 283 257 226 294 295 31 27 22 112 114 110 105 99
254 252 253 248 245 238 234 231 243 234 256 264 242 239 237 229 230 213 197 194 183 189 193 190 214 195 180 221 207 213 207 219 233 302 292 326 295 108 51 72 80 91 104 101 95
245 245 241 238 246 238 227 221 208 194 288 249 213 209 174 164 205 187 188 188 201 201 208 235 251 204 200 211 171 256 233 213 236 115 232 79 277 43 93 72 68 93 105 103 97
242 242 231 224 225 207 219 188 184 120 265 143 161 160 160 177 135 178 182 187 188 182 129 240 233 181 186 219 156 223 173 173 161 140 54 318 115 260 131 107 117 106 110 106 98
239 233 224 218 219 213 191 187 148 133 235 195 146 166 134 166 154 128 154 162 159 171 176 236 263 220 209 131 170 152 102 51 39 92 246 211 161 247 193 180 151 135 121 111 103
242 233 226 219 218 209 200 176 160 209 111 192 185 163 167 161 170 163 162 175 162 125 196 265 228 261 173 122 36 112 86 333 345 341 227 169 132 256 337 141 146 139 130 117 104
234 235 219 223 224 219 205 176 213 181 191 133 121 129 168 158 198 188 131 206 236 161 145 169 270 177 195 198 181 188 169 164 205 210 245 274 241 301 48 105 131 138 134 128 113
219 218 221 221 225 210 172 210 217 184 165 151 74 136 183 213 166 157 203 207 200 180 175 181 260 121 171 171 152 189 185 198 106 44 67 224 40 114 108 102 129 141 146 140 127
199 199 205 199 199 174 187 209 216 220 127 155 173 165 176 193 158 183 200 216 212 189 204 189 210 47 183 127 63 168 161 69 8 167 260 277 268 200 177 172 172 168 169 164 170
192 173 197 195 192 188 197 216 202 222 207 171 197 188 216 188 194 189 219 290 164 149 138 130 134 247 142 205 189 128 168 84 133 152 185 243 254 242 177 175 178 188 191 188 194
163 148 170 182 192 218 171 179 186 166 183 241 265 195 194 184 197 203 213 226 11 161 154 183 145 182 201 341 318 345 202 166 155 225 227 174 261 96 157 168 176 192 203 207 209
129 111 206 191 209 196 166 183 194 155 176 177 206 248 124 168 201 213 203 71 341 185 161 179 164 64 350 345 48 186 170 127 104 81 203 183 258 98 118 144 192 202 202 191 184
129 163 236 250 267 239 165 191 209 195 189 194 170 134 153 170 209 215 182 310 314 152 119 131 148 179 224 189 134 158 171 166 132 137 184 222 273 176 171 180 200 196 182 172 177
163 212 190 189 239 229 279 172 194 182 215 186 185 207 170 195 203 200 160 167 359 15 52 132 188 142 285 138 138 184 172 187 182 180 192 248 222 256 211 230 209 174 163 169 174
168 201 198 194 184 216 234 218 234 207 170 210 221 190 189 211 182 192 143 184 192 83 102 357 170 101 315 291 233 268 193 191 218 234 243 252 267 270 99 159 151 163 167 179 223
199 201 169 219 170 178 225 235 221 164 237 233 204 147 200 207 139 113 116 124 148 146 161 128 129 86 262 1 29 303 207 203 201 198 219 226 243 169 164 158 164 165 181 209 247